| time (UTC) | temp F | wind direction | speed MPH | gust MPH | rain 1hr in | rain 24hr in | rain mn in | humidity % | barometer mb |
| 20260831045504 | 72 | 232 | 3.0 | 6.0 | 0.00 | 0.00 | 0.00 | 67 | 1021.3 |
| 20260831045004 | 72 | 180 | 3.0 | 4.0 | 0.00 | 0.00 | 0.00 | 67 | 1021.4 |
| 20260831044504 | 72 | 139 | 2.0 | 5.0 | 0.00 | 0.00 | 0.00 | 67 | 1021.1 |
| 20260831042503 | 71 | 165 | 0.0 | 3.0 | 0.00 | 0.00 | 0.00 | 69 | 1021.5 |
| 20260831042003 | 71 | 158 | 2.0 | 4.0 | 0.00 | 0.00 | 0.00 | 69 | 1021.4 |
| 20260831041503 | 71 | 212 | 2.0 | 3.0 | 0.00 | 0.00 | 0.00 | 70 | 1021.3 |
| 20260831041003 | 71 | 212 | 2.0 | 3.0 | 0.00 | 0.00 | 0.00 | 70 | 1021.4 |
| 20260831040503 | 71 | 190 | 3.0 | 3.0 | 0.00 | 0.00 | 0.00 | 69 | 1021.5 |
| 20260831040004 | 71 | 137 | 3.0 | 3.0 | 0.00 | 0.00 | 0.00 | 70 | 1021.4 |
| 20260831035504 | 71 | 202 | 2.0 | 3.0 | 0.00 | 0.00 | 0.00 | 70 | 1021.4 |
| 20260831035004 | 71 | 112 | 0.0 | 2.0 | 0.00 | 0.00 | 0.00 | 70 | 1021.5 |
| 20260831034504 | 71 | 186 | 0.0 | 2.0 | 0.00 | 0.00 | 0.00 | 70 | 1021.4 |
| 20260831034003 | 71 | 271 | 3.0 | 3.0 | 0.00 | 0.00 | 0.00 | 69 | 1021.5 |
| 20260831033504 | 71 | 271 | 3.0 | 3.0 | 0.00 | 0.00 | 0.00 | 69 | 1021.4 |
| 20260831031504 | 72 | 226 | 5.0 | 5.0 | 0.00 | 0.00 | 0.00 | 67 | 1020.9 |
| 20260831031004 | 72 | 226 | 5.0 | 5.0 | 0.00 | 0.00 | 0.00 | 67 | 1020.8 |
| 20260831030504 | 72 | 226 | 5.0 | 5.0 | 0.00 | 0.00 | 0.00 | 67 | 1020.7 |
| 20260831030003 | 72 | 224 | 5.0 | 7.0 | 0.00 | 0.00 | 0.00 | 66 | 1020.5 |
| 20260831025503 | 72 | 224 | 5.0 | 7.0 | 0.00 | 0.00 | 0.00 | 66 | 1020.5 |
| 20260831025004 | 74 | 237 | 3.0 | 4.0 | 0.00 | 0.00 | 0.00 | 64 | 1020.7 |
| 20260831023004 | 74 | 237 | 3.0 | 4.0 | 0.00 | 0.00 | 0.00 | 64 | 1020.7 |
| 20260831022504 | 74 | 237 | 3.0 | 4.0 | 0.00 | 0.00 | 0.00 | 64 | 1020.6 |
| 20260831022004 | 74 | 237 | 3.0 | 4.0 | 0.00 | 0.00 | 0.00 | 64 | 1020.7 |
| 20260831020004 | 74 | 257 | 6.0 | 7.0 | 0.00 | 0.00 | 0.00 | 63 | 1020.5 |
| 20260831015504 | 74 | 245 | 7.0 | 7.0 | 0.00 | 0.00 | 0.00 | 62 | 1020.3 |
| 20260831015004 | 74 | 265 | 9.0 | 10.0 | 0.00 | 0.00 | 0.00 | 62 | 1020.5 |
| 20260831014504 | 74 | 228 | 5.0 | 7.0 | 0.00 | 0.00 | 0.00 | 61 | 1020.3 |
| 20260831014004 | 75 | 256 | 7.0 | 7.0 | 0.00 | 0.00 | 0.00 | 60 | 1020.4 |
| 20260831013504 | 75 | 256 | 7.0 | 7.0 | 0.00 | 0.00 | 0.00 | 60 | 1020.3 |
| 20260831011503 | 76 | 199 | 5.0 | 9.0 | 0.00 | 0.00 | 0.00 | 58 | 1020.7 |
| 20260831011003 | 76 | 255 | 5.0 | 11.0 | 0.00 | 0.00 | 0.00 | 58 | 1020.4 |
| 20260831010504 | 76 | 209 | 4.0 | 8.0 | 0.00 | 0.00 | 0.00 | 58 | 1020.5 |
| 20260831010003 | 76 | 216 | 7.0 | 8.0 | 0.00 | 0.00 | 0.00 | 58 | 1020.6 |
| 20260831005503 | 76 | 233 | 7.0 | 11.0 | 0.00 | 0.00 | 0.00 | 58 | 1020.4 |
| 20260831005004 | 76 | 214 | 9.0 | 12.0 | 0.00 | 0.00 | 0.00 | 57 | 1020.6 |
| 20260831004504 | 76 | 258 | 3.0 | 5.0 | 0.00 | 0.00 | 0.00 | 57 | 1020.5 |
| 20260831004004 | 76 | 200 | 5.0 | 6.0 | 0.00 | 0.00 | 0.00 | 57 | 1020.5 |
| 20260831002004 | 77 | 192 | 8.0 | 11.0 | 0.00 | 0.00 | 0.00 | 55 | 1020.5 |
| 20260831001504 | 77 | 210 | 11.0 | 12.0 | 0.00 | 0.00 | 0.00 | 55 | 1020.2 |
| 20260831001003 | 77 | 206 | 5.0 | 7.0 | 0.00 | 0.00 | 0.00 | 55 | 1020.3 |
| 20260831000504 | 77 | 219 | 6.0 | 10.0 | 0.00 | 0.00 | 0.00 | 55 | 1020.3 |
| 20260831000004 | 77 | 197 | 5.0 | 7.0 | 0.00 | 0.00 | 0.00 | 54 | 1020.2 |
| 20260830235504 | 77 | 219 | 9.0 | 9.0 | 0.00 | 0.00 | 0.00 | 54 | 1020.2 |
| 20260830235004 | 77 | 251 | 5.0 | 11.0 | 0.00 | 0.00 | 0.00 | 53 | 1020.4 |
| 20260830234504 | 78 | 193 | 5.0 | 7.0 | 0.00 | 0.00 | 0.00 | 53 | 1020.5 |
| 20260830234004 | 78 | 204 | 6.0 | 13.0 | 0.00 | 0.00 | 0.00 | 52 | 1020.6 |
| 20260830233504 | 78 | 205 | 4.0 | 8.0 | 0.00 | 0.00 | 0.00 | 52 | 1020.8 |
| 20260830233003 | 78 | 202 | 9.0 | 13.0 | 0.00 | 0.00 | 0.00 | 51 | 1020.7 |
| 20260830232503 | 78 | 219 | 6.0 | 10.0 | 0.00 | 0.00 | 0.00 | 52 | 1020.5 |
| 20260830232004 | 78 | 215 | 8.0 | 9.0 | 0.00 | 0.00 | 0.00 | 52 | 1020.4 |
| 20260830231504 | 78 | 223 | 9.0 | 13.0 | 0.00 | 0.00 | 0.00 | 51 | 1020.6 |
| 20260830231003 | 78 | 217 | 7.0 | 10.0 | 0.00 | 0.00 | 0.00 | 51 | 1020.6 |
| 20260830230504 | 79 | 245 | 8.0 | 13.0 | 0.00 | 0.00 | 0.00 | 51 | 1020.6 |
| 20260830230004 | 79 | 197 | 9.0 | 12.0 | 0.00 | 0.00 | 0.00 | 50 | 1020.5 |
| 20260830225503 | 79 | 146 | 7.0 | 13.0 | 0.00 | 0.00 | 0.00 | 50 | 1020.8 |
| 20260830225004 | 79 | 185 | 10.0 | 12.0 | 0.00 | 0.00 | 0.00 | 49 | 1020.6 |
| 20260830224503 | 79 | 258 | 4.0 | 12.0 | 0.00 | 0.00 | 0.00 | 50 | 1020.7 |
| 20260830224003 | 79 | 168 | 7.0 | 10.0 | 0.00 | 0.00 | 0.00 | 50 | 1020.8 |
| 20260830223504 | 79 | 212 | 11.0 | 14.0 | 0.00 | 0.00 | 0.00 | 49 | 1020.8 |
| 20260830223003 | 79 | 223 | 9.0 | 18.0 | 0.00 | 0.00 | 0.00 | 48 | 1021.0 |
| 20260830222504 | 79 | 219 | 9.0 | 15.0 | 0.00 | 0.00 | 0.00 | 49 | 1021.1 |
| 20260830222004 | 79 | 207 | 5.0 | 13.0 | 0.00 | 0.00 | 0.00 | 50 | 1021.1 |
| 20260830221504 | 79 | 224 | 6.0 | 15.0 | 0.00 | 0.00 | 0.00 | 50 | 1021.4 |
| 20260830221004 | 78 | 202 | 6.0 | 12.0 | 0.00 | 0.00 | 0.00 | 51 | 1021.0 |
| 20260830220504 | 78 | 192 | 14.0 | 15.0 | 0.00 | 0.00 | 0.00 | 51 | 1021.4 |
| 20260830220003 | 80 | 153 | 8.0 | 11.0 | 0.00 | 0.00 | 0.00 | 49 | 1021.4 |
| 20260830215503 | 79 | 202 | 6.0 | 15.0 | 0.00 | 0.00 | 0.00 | 51 | 1021.6 |
| 20260830215004 | 82 | 234 | 7.0 | 13.0 | 0.00 | 0.00 | 0.00 | 48 | 1021.7 |
| 20260830214503 | 80 | 194 | 3.0 | 12.0 | 0.00 | 0.00 | 0.00 | 50 | 1021.7 |
| 20260830214003 | 78 | 211 | 8.0 | 19.0 | 0.00 | 0.00 | 0.00 | 52 | 1021.9 |
| 20260830212003 | 81 | 205 | 6.0 | 13.0 | 0.00 | 0.00 | 0.00 | 50 | 1021.9 |
| 20260830211503 | 83 | 195 | 11.0 | 13.0 | 0.00 | 0.00 | 0.00 | 48 | 1022.1 |
| 20260830211004 | 83 | 250 | 10.0 | 14.0 | 0.00 | 0.00 | 0.00 | 47 | 1022.2 |
| 20260830210503 | 82 | 217 | 8.0 | 15.0 | 0.00 | 0.00 | 0.00 | 48 | 1022.2 |
| 20260830210003 | 81 | 204 | 15.0 | 18.0 | 0.00 | 0.00 | 0.00 | 48 | 1022.2 |
| 20260830205504 | 81 | 137 | 7.0 | 14.0 | 0.00 | 0.00 | 0.00 | 49 | 1022.0 |
| 20260830205004 | 81 | 155 | 8.0 | 11.0 | 0.00 | 0.00 | 0.00 | 50 | 1022.2 |
| 20260830204504 | 80 | 239 | 9.0 | 15.0 | 0.00 | 0.00 | 0.00 | 51 | 1022.2 |
| 20260830204004 | 82 | 158 | 9.0 | 16.0 | 0.00 | 0.00 | 0.00 | 49 | 1022.3 |
| 20260830203503 | 81 | 158 | 7.0 | 12.0 | 0.00 | 0.00 | 0.00 | 50 | 1022.3 |
| 20260830203003 | 79 | 177 | 6.0 | 10.0 | 0.00 | 0.00 | 0.00 | 51 | 1022.4 |
| 20260830202504 | 78 | 225 | 9.0 | 19.0 | 0.00 | 0.00 | 0.00 | 52 | 1022.6 |
| 20260830202004 | 79 | 200 | 3.0 | 10.0 | 0.00 | 0.00 | 0.00 | 53 | 1022.3 |
| 20260830201504 | 80 | 247 | 10.0 | 24.0 | 0.00 | 0.00 | 0.00 | 52 | 1022.7 |
| 20260830201004 | 78 | 178 | 5.0 | 11.0 | 0.00 | 0.00 | 0.00 | 53 | 1022.6 |
| 20260830200503 | 77 | 126 | 6.0 | 13.0 | 0.00 | 0.00 | 0.00 | 53 | 1022.5 |
| 20260830200003 | 78 | 109 | 9.0 | 14.0 | 0.00 | 0.00 | 0.00 | 53 | 1022.6 |
| 20260830195504 | 78 | 209 | 7.0 | 8.0 | 0.00 | 0.00 | 0.00 | 53 | 1022.8 |
| 20260830195003 | 78 | 127 | 5.0 | 7.0 | 0.00 | 0.00 | 0.00 | 53 | 1022.8 |
| 20260830194503 | 77 | 150 | 5.0 | 12.0 | 0.00 | 0.00 | 0.00 | 54 | 1022.8 |
| 20260830194004 | 77 | 142 | 3.0 | 5.0 | 0.00 | 0.00 | 0.00 | 53 | 1022.9 |
| 20260830193504 | 77 | 142 | 3.0 | 7.0 | 0.00 | 0.00 | 0.00 | 53 | 1022.8 |
| 20260830193004 | 78 | 143 | 11.0 | 12.0 | 0.00 | 0.00 | 0.00 | 52 | 1022.9 |
| 20260830192504 | 79 | 144 | 9.0 | 14.0 | 0.00 | 0.00 | 0.00 | 51 | 1022.9 |
| 20260830190503 | 80 | 188 | 12.0 | 15.0 | 0.00 | 0.00 | 0.00 | 51 | 1023.0 |
| 20260830190004 | 78 | 127 | 5.0 | 8.0 | 0.00 | 0.00 | 0.00 | 52 | 1023.0 |
| 20260830185503 | 79 | 183 | 7.0 | 11.0 | 0.00 | 0.00 | 0.00 | 51 | 1022.9 |
| 20260830185004 | 79 | 183 | 7.0 | 11.0 | 0.00 | 0.00 | 0.00 | 51 | 1022.9 |
| 20260830184503 | 78 | 181 | 13.0 | 21.0 | 0.00 | 0.00 | 0.00 | 51 | 1023.0 |
| 20260830184004 | 79 | 173 | 5.0 | 16.0 | 0.00 | 0.00 | 0.00 | 51 | 1023.0 |
| 20260830183504 | 79 | 191 | 9.0 | 10.0 | 0.00 | 0.00 | 0.00 | 51 | 1023.2 |
| 20260830183004 | 80 | 204 | 8.0 | 10.0 | 0.00 | 0.00 | 0.00 | 50 | 1022.9 |
| 20260830182504 | 79 | 180 | 8.0 | 13.0 | 0.00 | 0.00 | 0.00 | 50 | 1023.1 |
| 20260830182003 | 77 | 210 | 13.0 | 20.0 | 0.00 | 0.00 | 0.00 | 52 | 1023.2 |
| 20260830181503 | 77 | 207 | 12.0 | 18.0 | 0.00 | 0.00 | 0.00 | 52 | 1023.2 |
| 20260830181004 | 77 | 229 | 14.0 | 23.0 | 0.00 | 0.00 | 0.00 | 50 | 1023.4 |
| 20260830180503 | 77 | 230 | 9.0 | 20.0 | 0.00 | 0.00 | 0.00 | 49 | 1023.1 |
| 20260830180003 | 79 | 200 | 9.0 | 11.0 | 0.00 | 0.00 | 0.00 | 49 | 1023.2 |
| 20260830175503 | 78 | 164 | 9.0 | 13.0 | 0.00 | 0.00 | 0.00 | 50 | 1023.5 |
| 20260830175003 | 78 | 198 | 6.0 | 9.0 | 0.00 | 0.00 | 0.00 | 49 | 1023.4 |
| 20260830174503 | 78 | 187 | 14.0 | 14.0 | 0.00 | 0.00 | 0.00 | 50 | 1023.2 |
| 20260830170003 | 73 | 164 | 6.0 | 13.0 | 0.00 | 0.00 | 0.00 | 58 | 1023.0 |
| 20260830165503 | 72 | 221 | 8.0 | 15.0 | 0.00 | 0.00 | 0.00 | 60 | 1023.1 |
| 20260830165004 | 73 | 147 | 14.0 | 24.0 | 0.00 | 0.00 | 0.00 | 57 | 1023.5 |
| 20260830164503 | 74 | 152 | 7.0 | 15.0 | 0.00 | 0.00 | 0.00 | 55 | 1023.4 |
| 20260830164003 | 75 | 150 | 15.0 | 16.0 | 0.00 | 0.00 | 0.00 | 54 | 1023.4 |
| 20260830163503 | 75 | 162 | 6.0 | 19.0 | 0.00 | 0.00 | 0.00 | 55 | 1023.4 |
| 20260830163003 | 74 | 145 | 4.0 | 15.0 | 0.00 | 0.00 | 0.00 | 57 | 1023.2 |
| 20260830162503 | 74 | 131 | 9.0 | 19.0 | 0.00 | 0.00 | 0.00 | 55 | 1023.1 |
| 20260830162004 | 75 | 131 | 7.0 | 10.0 | 0.00 | 0.00 | 0.00 | 55 | 1023.1 |
| 20260830161503 | 74 | 199 | 4.0 | 14.0 | 0.00 | 0.00 | 0.00 | 56 | 1023.4 |
| 20260830161004 | 73 | 146 | 11.0 | 19.0 | 0.00 | 0.00 | 0.00 | 57 | 1023.2 |
| 20260830160504 | 72 | 166 | 7.0 | 17.0 | 0.00 | 0.00 | 0.00 | 58 | 1022.9 |
| 20260830154503 | 74 | 182 | 16.0 | 17.0 | 0.00 | 0.00 | 0.00 | 56 | 1022.9 |
| 20260830154004 | 73 | 203 | 17.0 | 24.0 | 0.00 | 0.00 | 0.00 | 57 | 1022.9 |
| 20260830153503 | 74 | 158 | 10.0 | 15.0 | 0.00 | 0.00 | 0.00 | 56 | 1022.9 |
| 20260830151503 | 73 | 191 | 6.0 | 16.0 | 0.00 | 0.00 | 0.00 | 58 | 1022.9 |
| 20260830151003 | 73 | 156 | 11.0 | 13.0 | 0.00 | 0.00 | 0.00 | 58 | 1022.8 |
| 20260830150503 | 73 | 159 | 9.0 | 15.0 | 0.00 | 0.00 | 0.00 | 57 | 1022.8 |
| 20260830150003 | 73 | 186 | 10.0 | 19.0 | 0.00 | 0.00 | 0.00 | 56 | 1022.9 |
| 20260830145503 | 74 | 166 | 7.0 | 11.0 | 0.00 | 0.00 | 0.00 | 57 | 1022.8 |
| 20260830145003 | 73 | 182 | 6.0 | 13.0 | 0.00 | 0.00 | 0.00 | 59 | 1022.8 |
| 20260830144503 | 73 | 222 | 8.0 | 20.0 | 0.00 | 0.00 | 0.00 | 59 | 1022.9 |
| 20260830144003 | 73 | 189 | 15.0 | 17.0 | 0.00 | 0.00 | 0.00 | 60 | 1022.8 |
| 20260830143503 | 72 | 179 | 2.0 | 17.0 | 0.00 | 0.00 | 0.00 | 60 | 1022.8 |
| 20260830143003 | 72 | 143 | 6.0 | 18.0 | 0.00 | 0.00 | 0.00 | 61 | 1022.8 |
| 20260830142503 | 72 | 169 | 10.0 | 16.0 | 0.00 | 0.00 | 0.00 | 61 | 1022.6 |
| 20260830142003 | 72 | 182 | 7.0 | 22.0 | 0.00 | 0.00 | 0.00 | 62 | 1022.7 |
| 20260830141503 | 71 | 213 | 11.0 | 20.0 | 0.00 | 0.00 | 0.00 | 63 | 1022.7 |
| 20260830141003 | 71 | 221 | 14.0 | 16.0 | 0.00 | 0.00 | 0.00 | 63 | 1022.7 |
| 20260830135503 | 71 | 178 | 12.0 | 18.0 | 0.00 | 0.00 | 0.00 | 63 | 1022.6 |
| 20260830135003 | 71 | 197 | 7.0 | 18.0 | 0.00 | 0.00 | 0.00 | 63 | 1022.3 |
| 20260830134503 | 71 | 178 | 12.0 | 14.0 | 0.00 | 0.00 | 0.00 | 63 | 1022.4 |
| 20260830132503 | 70 | 164 | 8.0 | 12.0 | 0.00 | 0.00 | 0.00 | 65 | 1022.2 |
| 20260830132004 | 70 | 164 | 8.0 | 12.0 | 0.00 | 0.00 | 0.00 | 65 | 1022.3 |
| 20260830131504 | 70 | 164 | 8.0 | 12.0 | 0.00 | 0.00 | 0.00 | 65 | 1022.2 |
| 20260830131003 | 71 | 178 | 15.0 | 15.0 | 0.00 | 0.00 | 0.00 | 65 | 1022.0 |
| 20260830130503 | 71 | 178 | 15.0 | 15.0 | 0.00 | 0.00 | 0.00 | 65 | 1022.2 |
| 20260830130004 | 71 | 178 | 15.0 | 15.0 | 0.00 | 0.00 | 0.00 | 65 | 1022.1 |
| 20260830125503 | 71 | 178 | 15.0 | 15.0 | 0.00 | 0.00 | 0.00 | 65 | 1021.8 |
| 20260830125003 | 71 | 178 | 15.0 | 15.0 | 0.00 | 0.00 | 0.00 | 65 | 1021.9 |
| 20260830124504 | 71 | 178 | 15.0 | 15.0 | 0.00 | 0.00 | 0.00 | 65 | 1021.9 |
| 20260830124003 | 71 | 201 | 9.0 | 19.0 | 0.00 | 0.00 | 0.00 | 65 | 1021.8 |
| 20260830123503 | 70 | 196 | 11.0 | 15.0 | 0.00 | 0.00 | 0.00 | 66 | 1021.9 |
| 20260830123003 | 70 | 183 | 19.0 | 20.0 | 0.00 | 0.00 | 0.00 | 66 | 1021.7 |
| 20260830122504 | 70 | 183 | 19.0 | 20.0 | 0.00 | 0.00 | 0.00 | 66 | 1021.7 |
| 20260830122004 | 70 | 207 | 11.0 | 14.0 | 0.00 | 0.00 | 0.00 | 67 | 1021.9 |
| 20260830121504 | 70 | 207 | 11.0 | 14.0 | 0.00 | 0.00 | 0.00 | 67 | 1022.1 |
| 20260830115504 | 70 | 196 | 9.0 | 16.0 | 0.00 | 0.00 | 0.00 | 67 | 1022.0 |
| 20260830115004 | 70 | 186 | 12.0 | 18.0 | 0.00 | 0.00 | 0.00 | 67 | 1021.9 |
| 20260830114504 | 70 | 186 | 12.0 | 18.0 | 0.00 | 0.00 | 0.00 | 67 | 1021.7 |
| 20260830114004 | 70 | 210 | 13.0 | 17.0 | 0.00 | 0.00 | 0.00 | 67 | 1022.1 |
| 20260830113503 | 69 | 188 | 9.0 | 10.0 | 0.00 | 0.00 | 0.00 | 69 | 1021.9 |
| 20260830113004 | 70 | 198 | 15.0 | 17.0 | 0.00 | 0.00 | 0.00 | 67 | 1021.8 |
| 20260830112504 | 70 | 198 | 15.0 | 17.0 | 0.00 | 0.00 | 0.00 | 67 | 1022.0 |
| 20260830112004 | 69 | 190 | 10.0 | 14.0 | 0.00 | 0.00 | 0.00 | 68 | 1021.8 |
| 20260830111504 | 69 | 186 | 10.0 | 17.0 | 0.00 | 0.00 | 0.00 | 68 | 1022.0 |
| 20260830111004 | 70 | 162 | 6.0 | 16.0 | 0.00 | 0.00 | 0.00 | 68 | 1021.7 |
| 20260830110504 | 70 | 162 | 6.0 | 16.0 | 0.00 | 0.00 | 0.00 | 68 | 1021.8 |
| 20260830110005 | 70 | 162 | 6.0 | 16.0 | 0.00 | 0.00 | 0.00 | 68 | 1021.7 |
| 20260830105503 | 70 | 181 | 11.0 | 18.0 | 0.00 | 0.00 | 0.00 | 68 | 1022.0 |
| 20260830105003 | 69 | 196 | 7.0 | 11.0 | 0.00 | 0.00 | 0.00 | 69 | 1021.9 |
| 20260830104504 | 69 | 212 | 11.0 | 17.0 | 0.00 | 0.00 | 0.00 | 69 | 1022.0 |
| 20260830104003 | 70 | 180 | 11.0 | 13.0 | 0.00 | 0.00 | 0.00 | 68 | 1021.9 |
| 20260830103503 | 70 | 180 | 11.0 | 13.0 | 0.00 | 0.00 | 0.00 | 68 | 1021.8 |
| 20260830103004 | 70 | 195 | 12.0 | 17.0 | 0.00 | 0.00 | 0.00 | 68 | 1021.9 |
| 20260830102504 | 70 | 207 | 13.0 | 17.0 | 0.00 | 0.00 | 0.00 | 68 | 1021.7 |
| 20260830102004 | 70 | 213 | 12.0 | 16.0 | 0.00 | 0.00 | 0.00 | 68 | 1021.7 |
| 20260830101504 | 70 | 213 | 12.0 | 16.0 | 0.00 | 0.00 | 0.00 | 68 | 1021.8 |
| 20260830100004 | 70 | 180 | 11.0 | 14.0 | 0.00 | 0.00 | 0.00 | 68 | 1021.6 |
| 20260830095503 | 70 | 175 | 14.0 | 16.0 | 0.00 | 0.00 | 0.00 | 69 | 1021.7 |
| 20260830095004 | 69 | 201 | 8.0 | 11.0 | 0.00 | 0.00 | 0.00 | 69 | 1021.4 |
| 20260830094503 | 69 | 194 | 5.0 | 6.0 | 0.00 | 0.00 | 0.00 | 69 | 1021.5 |
| 20260830094003 | 69 | 194 | 5.0 | 6.0 | 0.00 | 0.00 | 0.00 | 69 | 1021.6 |
| 20260830093503 | 68 | 150 | 7.0 | 7.0 | 0.00 | 0.00 | 0.00 | 71 | 1021.6 |
| 20260830093004 | 68 | 150 | 7.0 | 7.0 | 0.00 | 0.00 | 0.00 | 71 | 1021.7 |
| 20260830092504 | 67 | 136 | 6.0 | 7.0 | 0.00 | 0.00 | 0.00 | 72 | 1021.7 |
| 20260830092004 | 67 | 121 | 2.0 | 5.0 | 0.00 | 0.00 | 0.00 | 73 | 1021.8 |
| 20260830090004 | 68 | 126 | 5.0 | 6.0 | 0.00 | 0.00 | 0.00 | 71 | 1021.7 |
| 20260830085503 | 68 | 126 | 5.0 | 6.0 | 0.00 | 0.00 | 0.00 | 71 | 1021.7 |
| 20260830083504 | 68 | 152 | 5.0 | 8.0 | 0.00 | 0.00 | 0.00 | 70 | 1021.7 |
| 20260830083004 | 68 | 112 | 6.0 | 9.0 | 0.00 | 0.00 | 0.00 | 70 | 1022.0 |
| 20260830082504 | 68 | 119 | 3.0 | 7.0 | 0.00 | 0.00 | 0.00 | 68 | 1021.8 |
| 20260830080503 | 72 | 143 | 3.0 | 5.0 | 0.00 | 0.00 | 0.00 | 56 | 1021.6 |
| 20260830080004 | 72 | 177 | 8.0 | 11.0 | 0.00 | 0.00 | 0.00 | 56 | 1021.5 |
| 20260830075504 | 72 | 177 | 8.0 | 11.0 | 0.00 | 0.00 | 0.00 | 56 | 1021.7 |
| 20260830073503 | 68 | 246 | 3.0 | 4.0 | 0.00 | 0.00 | 0.00 | 66 | 1021.6 |
| 20260830073003 | 68 | 246 | 3.0 | 4.0 | 0.00 | 0.00 | 0.00 | 66 | 1021.5 |
| 20260830072504 | 68 | 233 | 5.0 | 5.0 | 0.00 | 0.00 | 0.00 | 66 | 1021.4 |
| 20260830070504 | 75 | 203 | 14.0 | 14.0 | 0.00 | 0.00 | 0.00 | 48 | 1021.4 |
| 20260830070004 | 75 | 203 | 14.0 | 14.0 | 0.00 | 0.00 | 0.35 | 48 | 1021.7 |
| 20260830064004 | 74 | 229 | 8.0 | 9.0 | 0.00 | 0.00 | 0.35 | 54 | 1021.6 |
| 20260830063504 | 74 | 229 | 8.0 | 9.0 | 0.00 | 0.00 | 0.35 | 54 | 1021.5 |
| 20260830063004 | 73 | 212 | 7.0 | 10.0 | 0.00 | 0.00 | 0.35 | 55 | 1021.5 |
| 20260830062504 | 73 | 212 | 7.0 | 10.0 | 0.00 | 0.00 | 0.35 | 55 | 1021.6 |
| 20260830062004 | 69 | 254 | 4.0 | 6.0 | 0.00 | 0.00 | 0.35 | 63 | 1021.4 |
| 20260830061504 | 69 | 221 | 3.0 | 5.0 | 0.00 | 0.00 | 0.35 | 66 | 1021.7 |
| 20260830055503 | 67 | 254 | 5.0 | 6.0 | 0.00 | 0.00 | 0.35 | 72 | 1021.9 |
| 20260830055003 | 67 | 231 | 4.0 | 6.0 | 0.00 | 0.00 | 0.35 | 73 | 1021.9 |
| 20260830054504 | 68 | 251 | 2.0 | 4.0 | 0.00 | 0.00 | 0.35 | 72 | 1021.9 |
| 20260830054003 | 68 | 251 | 5.0 | 5.0 | 0.00 | 0.00 | 0.35 | 71 | 1021.9 |
| 20260830053503 | 68 | 257 | 5.0 | 6.0 | 0.00 | 0.00 | 0.35 | 69 | 1021.9 |
| 20260830053004 | 68 | 259 | 3.0 | 6.0 | 0.00 | 0.00 | 0.35 | 70 | 1021.7 |
| 20260830052503 | 68 | 266 | 6.0 | 7.0 | 0.00 | 0.00 | 0.35 | 70 | 1021.9 |
| 20260830052003 | 68 | 267 | 4.0 | 7.0 | 0.00 | 0.00 | 0.35 | 70 | 1021.9 |
| 20260830051503 | 67 | 243 | 5.0 | 8.0 | 0.00 | 0.00 | 0.35 | 72 | 1022.1 |
| 20260830051003 | 68 | 247 | 4.0 | 6.0 | 0.00 | 0.00 | 0.35 | 72 | 1022.1 |
| 20260830050504 | 67 | 235 | 4.0 | 6.0 | 0.00 | 0.00 | 0.35 | 72 | 1022.1 |
| 20260830050004 | 67 | 251 | 5.0 | 7.0 | 0.00 | 0.00 | 0.35 | 72 | 1022.1 |